Location: Gönnheim
(49.4488°N, 8.2383°E)
Time: 20:08:25
(UTC+00:00)

Cosmos 1420 Rocket - Pass Details

Date: 09 August 2025
Orbit: 749 x 777 km, 74.0° (Epoch: 13 April)

Event Time Altitude Azimuth Distance (km) Brightness Sun altitude
Exits shadow 21:48:58 43° 122° (ESE) 1,058 4.3 -21.1°
Maximum altitude 21:49:29 44° 105° (ESE) 1,036 4.3 -21.1°
Drops below altitude 10° 21:54:22 10° 34° (NE) 2,284 6.8 -21.5°
Enters shadow 22:58:20 -56° 209° (SSW) 11,519 10.0 -24.6°
